Weather in Katherine

Australia     14°27′55″S   132°15′47″E
temp.,
°C
wind,
m/s
gust,
m/s
humid.,
%
clouds,
%
prec.,
mm/h
press.,
hPa
HPBL,
m
14 august, sun
sun1400:30+21e4115637 0.0 1014258
03:30+19ese310706 0.0 1014297
06:30+17ese24782 0.0 101593
09:30+25ese69400 0.0 1016835
12:30+32ese57230 0.0 10142516
15:30+34se56155 0.0 10103036
18:30+28sse471739 0.0 1011132
21:30+22se4112211 0.0 1014193
15 august, mon
mon1500:30+20ese38215 0.0 1014166
03:30+16ese39215 0.0 1014171
06:30+16ese4131826 0.0 1015272
09:30+24ese6101311 0.0 1016695
12:30+30se6885 0.0 10141886
15:30+32se6765 0.0 10102293
18:30+26ese3584 0.0 101160
21:30+19ese35124 0.0 101458
16 august, tue
tue1600:30+15se23165 0.0 101523
03:30+14ese36295 0.0 101593
06:30+13se310445 0.0 1016166
09:30+24ese612155 0.0 1016741
12:30+31ese79634 0.0 10141777
15:30+33ese7855 0.0 10112185
18:30+27ese47860 0.0 101293
21:30+20e471328 0.0 1015111
17 august, wed
wed1700:30+16e35235 0.0 101570
03:30+14ese393042 0.0 1015131
06:30+13ese394332 0.0 1017151
09:30+24ese610285 0.0 1018721
12:30+31ese56118 0.0 10151668
15:30+33ese56739 0.0 10112187
18:30+26ese33105 0.0 101240
21:30+19e34160 0.0 101448
18 august, thu
thu1800:30+16se33200 0.0 101539
03:30+14ese36360 0.0 101488
06:30+12ese34530 0.0 101661
09:30+23ese36320 0.0 1017514
12:30+31ese44132 0.0 10141789
15:30+34ese4490 0.0 10102294
18:30+27ese33125 0.0 101128
21:30+20ese34175 0.0 101459